| time (UTC) | temp C | wind direction | speed KPH | gust KPH | rain 1hr cm | rain 24hr cm | rain mn cm | humidity % | barometer mb |
| 20260906005043 | 24 | 157 | 0.0 | 11.3 | 0.00 | 0.00 | 0.00 | 49 | 1020.5 |
| 20260906004610 | 24 | 144 | 0.0 | 11.3 | 0.00 | 0.00 | 0.00 | 48 | 1020.6 |
| 20260906004044 | 25 | 0 | 1.6 | 11.3 | 0.00 | 0.00 | 0.00 | 47 | 1020.5 |
| 20260906003544 | 25 | 143 | 0.0 | 8.0 | 0.00 | 0.00 | 0.00 | 47 | 1020.4 |
| 20260906003120 | 25 | 0 | 0.0 | 8.0 | 0.00 | 0.00 | 0.00 | 47 | 1020.5 |
| 20260906002543 | 25 | 137 | 1.6 | 6.4 | 0.00 | 0.00 | 0.00 | 46 | 1020.5 |
| 20260906002046 | 25 | 162 | 3.2 | 9.7 | 0.00 | 0.00 | 0.00 | 47 | 1020.5 |
| 20260906001559 | 26 | 143 | 1.6 | 11.3 | 0.00 | 0.00 | 0.00 | 45 | 1020.5 |
| 20260906001043 | 26 | 187 | 1.6 | 11.3 | 0.00 | 0.00 | 0.00 | 44 | 1020.4 |
| 20260906000545 | 26 | 165 | 1.6 | 11.3 | 0.00 | 0.00 | 0.00 | 44 | 1020.5 |
| 20260906000106 | 26 | 163 | 3.2 | 11.3 | 0.00 | 0.00 | 0.00 | 43 | 1020.5 |
| 20260905235543 | 26 | 82 | 1.6 | 14.5 | 0.00 | 0.00 | 0.00 | 42 | 1020.3 |
| 20260905235043 | 26 | 240 | 1.6 | 16.1 | 0.00 | 0.00 | 0.00 | 42 | 1020.5 |
| 20260905234609 | 26 | 129 | 4.8 | 16.1 | 0.00 | 0.00 | 0.00 | 41 | 1020.5 |
| 20260905234046 | 26 | 157 | 1.6 | 9.7 | 0.00 | 0.00 | 0.00 | 41 | 1020.4 |
| 20260905233545 | 26 | 0 | 3.2 | 11.3 | 0.00 | 0.00 | 0.00 | 40 | 1020.5 |
| 20260905233101 | 26 | 196 | 4.8 | 11.3 | 0.00 | 0.00 | 0.00 | 40 | 1020.5 |
| 20260905232618 | 27 | 0 | 3.2 | 11.3 | 0.00 | 0.00 | 0.00 | 38 | 1020.5 |
| 20260905232045 | 27 | 190 | 3.2 | 16.1 | 0.00 | 0.00 | 0.00 | 38 | 1020.5 |
| 20260905231558 | 27 | 290 | 3.2 | 16.1 | 0.00 | 0.00 | 0.00 | 37 | 1020.3 |
| 20260905231043 | 27 | 247 | 3.2 | 14.5 | 0.00 | 0.00 | 0.00 | 37 | 1020.5 |
| 20260905230548 | 27 | 115 | 1.6 | 16.1 | 0.00 | 0.00 | 0.00 | 35 | 1020.4 |
| 20260905230106 | 27 | 352 | 4.8 | 16.1 | 0.00 | 0.00 | 0.00 | 34 | 1020.3 |
| 20260905225546 | 27 | 175 | 4.8 | 14.5 | 0.00 | 0.00 | 0.00 | 35 | 1020.3 |
| 20260905225047 | 27 | 0 | 3.2 | 14.5 | 0.00 | 0.00 | 0.00 | 35 | 1020.4 |
| 20260905224559 | 27 | 191 | 4.8 | 20.9 | 0.00 | 0.00 | 0.00 | 35 | 1020.5 |
| 20260905224045 | 27 | 258 | 8.0 | 20.9 | 0.00 | 0.00 | 0.00 | 34 | 1020.6 |
| 20260905223545 | 27 | 153 | 4.8 | 19.3 | 0.00 | 0.00 | 0.00 | 34 | 1020.3 |
| 20260905223105 | 27 | 126 | 4.8 | 19.3 | 0.00 | 0.00 | 0.00 | 37 | 1020.4 |
| 20260905222548 | 27 | 138 | 3.2 | 12.9 | 0.00 | 0.00 | 0.00 | 38 | 1020.6 |
| 20260905222050 | 27 | 153 | 4.8 | 14.5 | 0.00 | 0.00 | 0.00 | 37 | 1020.5 |
| 20260905221605 | 27 | 196 | 4.8 | 14.5 | 0.00 | 0.00 | 0.00 | 40 | 1020.5 |
| 20260905221047 | 27 | 284 | 3.2 | 17.7 | 0.00 | 0.00 | 0.00 | 41 | 1020.7 |
| 20260905220548 | 27 | 101 | 3.2 | 17.7 | 0.00 | 0.00 | 0.00 | 39 | 1020.6 |
| 20260905215545 | 27 | 209 | 3.2 | 16.1 | 0.00 | 0.00 | 0.00 | 40 | 1020.7 |
| 20260905215047 | 27 | 132 | 4.8 | 16.1 | 0.00 | 0.00 | 0.00 | 41 | 1020.6 |
| 20260905214557 | 27 | 159 | 3.2 | 16.1 | 0.00 | 0.00 | 0.00 | 39 | 1020.8 |
| 20260905214044 | 27 | 0 | 3.2 | 19.3 | 0.00 | 0.00 | 0.00 | 39 | 1020.8 |
| 20260905213548 | 27 | 238 | 4.8 | 19.3 | 0.00 | 0.00 | 0.00 | 39 | 1021.0 |
| 20260905213106 | 27 | 142 | 4.8 | 16.1 | 0.00 | 0.00 | 0.00 | 38 | 1021.1 |
| 20260905212545 | 27 | 209 | 6.4 | 16.1 | 0.00 | 0.00 | 0.00 | 38 | 1021.1 |
| 20260905212044 | 27 | 209 | 4.8 | 16.1 | 0.00 | 0.00 | 0.00 | 39 | 1021.1 |
| 20260905211605 | 27 | 172 | 3.2 | 12.9 | 0.00 | 0.00 | 0.00 | 40 | 1021.1 |
| 20260905211049 | 27 | 107 | 4.8 | 12.9 | 0.00 | 0.00 | 0.00 | 39 | 1021.1 |
| 20260905210549 | 27 | 144 | 4.8 | 12.9 | 0.00 | 0.00 | 0.00 | 39 | 1021.2 |
| 20260905210059 | 27 | 136 | 3.2 | 12.9 | 0.00 | 0.00 | 0.00 | 38 | 1021.2 |
| 20260905205544 | 27 | 166 | 4.8 | 12.9 | 0.00 | 0.00 | 0.00 | 37 | 1021.5 |
| 20260905205044 | 27 | 227 | 3.2 | 14.5 | 0.00 | 0.00 | 0.00 | 36 | 1021.4 |
| 20260905204601 | 27 | 157 | 3.2 | 14.5 | 0.00 | 0.00 | 0.00 | 36 | 1021.4 |
| 20260905204047 | 26 | 172 | 3.2 | 14.5 | 0.00 | 0.00 | 0.00 | 33 | 1021.6 |
| 20260905203546 | 27 | 307 | 1.6 | 16.1 | 0.00 | 0.00 | 0.00 | 33 | 1021.4 |
| 20260905203101 | 27 | 80 | 3.2 | 16.1 | 0.00 | 0.00 | 0.00 | 34 | 1021.6 |
| 20260905202544 | 26 | 204 | 3.2 | 16.1 | 0.00 | 0.00 | 0.00 | 31 | 1021.6 |
| 20260905202043 | 26 | 188 | 0.0 | 11.3 | 0.00 | 0.00 | 0.00 | 34 | 1021.4 |
| 20260905201558 | 26 | 173 | 3.2 | 16.1 | 0.00 | 0.00 | 0.00 | 35 | 1021.5 |
| 20260905201045 | 26 | 212 | 3.2 | 16.1 | 0.00 | 0.00 | 0.00 | 35 | 1021.4 |
| 20260905200617 | 26 | 185 | 3.2 | 12.9 | 0.00 | 0.00 | 0.00 | 34 | 1021.4 |
| 20260905200108 | 26 | 271 | 4.8 | 24.1 | 0.00 | 0.00 | 0.00 | 34 | 1021.6 |
| 20260905195549 | 26 | 0 | 0.0 | 24.1 | 0.00 | 0.00 | 0.00 | 33 | 1021.5 |
| 20260905195049 | 26 | 0 | 3.2 | 16.1 | 0.00 | 0.00 | 0.00 | 32 | 1021.6 |
| 20260905194604 | 26 | 192 | 3.2 | 16.1 | 0.00 | 0.00 | 0.00 | 32 | 1021.6 |
| 20260905194048 | 26 | 227 | 1.6 | 17.7 | 0.00 | 0.00 | 0.00 | 34 | 1021.8 |
| 20260905193548 | 26 | 49 | 4.8 | 17.7 | 0.00 | 0.00 | 0.00 | 31 | 1021.9 |
| 20260905193110 | 26 | 304 | 3.2 | 12.9 | 0.00 | 0.00 | 0.00 | 32 | 1021.8 |
| 20260905192545 | 26 | 153 | 4.8 | 19.3 | 0.00 | 0.00 | 0.00 | 33 | 1021.9 |
| 20260905192044 | 26 | 188 | 4.8 | 19.3 | 0.00 | 0.00 | 0.00 | 34 | 1022.0 |
| 20260905191600 | 26 | 180 | 8.0 | 19.3 | 0.00 | 0.00 | 0.00 | 32 | 1021.9 |
| 20260905191045 | 26 | 121 | 4.8 | 17.7 | 0.00 | 0.00 | 0.00 | 33 | 1021.9 |
| 20260905190542 | 26 | 206 | 4.8 | 16.1 | 0.00 | 0.00 | 0.00 | 30 | 1021.9 |
| 20260905190103 | 26 | 0 | 4.8 | 16.1 | 0.00 | 0.00 | 0.00 | 33 | 1021.8 |
| 20260905185544 | 26 | 122 | 4.8 | 14.5 | 0.00 | 0.00 | 0.00 | 34 | 1021.7 |
| 20260905185051 | 26 | 229 | 3.2 | 14.5 | 0.00 | 0.00 | 0.00 | 34 | 1021.8 |
| 20260905184612 | 26 | 180 | 3.2 | 22.5 | 0.00 | 0.00 | 0.00 | 33 | 1021.9 |
| 20260905184150 | 25 | 157 | 6.4 | 22.5 | 0.00 | 0.00 | 0.00 | 33 | 1021.7 |
| 20260905184045 | 25 | 157 | 6.4 | 22.5 | 0.00 | 0.00 | 0.00 | 33 | 1021.7 |
| 20260905183546 | 25 | 164 | 6.4 | 20.9 | 0.00 | 0.00 | 0.00 | 33 | 1021.8 |
| 20260905183107 | 25 | 116 | 3.2 | 12.9 | 0.00 | 0.00 | 0.00 | 35 | 1021.8 |
| 20260905182544 | 25 | 76 | 4.8 | 12.9 | 0.00 | 0.00 | 0.00 | 34 | 1021.8 |
| 20260905182045 | 25 | 154 | 1.6 | 12.9 | 0.00 | 0.00 | 0.00 | 32 | 1021.8 |
| 20260905181604 | 25 | 161 | 1.6 | 12.9 | 0.00 | 0.00 | 0.00 | 33 | 1021.8 |
| 20260905181044 | 25 | 186 | 1.6 | 14.5 | 0.00 | 0.00 | 0.00 | 33 | 1021.9 |
| 20260905180544 | 25 | 119 | 6.4 | 14.5 | 0.00 | 0.00 | 0.00 | 35 | 1022.0 |
| 20260905180108 | 25 | 173 | 1.6 | 12.9 | 0.00 | 0.00 | 0.00 | 33 | 1021.9 |
| 20260905175546 | 24 | 227 | 1.6 | 16.1 | 0.00 | 0.00 | 0.00 | 35 | 1021.8 |
| 20260905175045 | 24 | 158 | 3.2 | 16.1 | 0.00 | 0.00 | 0.00 | 36 | 1021.8 |
| 20260905174559 | 24 | 128 | 3.2 | 11.3 | 0.00 | 0.00 | 0.00 | 33 | 1021.8 |
| 20260905174046 | 24 | 0 | 3.2 | 11.3 | 0.00 | 0.00 | 0.00 | 31 | 1021.7 |
| 20260905173544 | 24 | 188 | 3.2 | 16.1 | 0.00 | 0.00 | 0.00 | 30 | 1021.6 |
| 20260905173059 | 24 | 113 | 4.8 | 16.1 | 0.00 | 0.00 | 0.00 | 31 | 1021.6 |
| 20260905172544 | 24 | 113 | 1.6 | 12.9 | 0.00 | 0.00 | 0.00 | 27 | 1021.7 |
| 20260905172043 | 23 | 263 | 1.6 | 12.9 | 0.00 | 0.00 | 0.00 | 25 | 1021.5 |
| 20260905171559 | 23 | 153 | 1.6 | 16.1 | 0.00 | 0.00 | 0.00 | 26 | 1021.4 |
| 20260905171044 | 23 | 149 | 3.2 | 16.1 | 0.00 | 0.00 | 0.00 | 27 | 1021.4 |
| 20260905170544 | 23 | 149 | 1.6 | 8.0 | 0.00 | 0.00 | 0.00 | 25 | 1021.4 |
| 20260905170112 | 23 | 161 | 1.6 | 11.3 | 0.00 | 0.00 | 0.00 | 24 | 1021.4 |
| 20260905165547 | 23 | 136 | 1.6 | 11.3 | 0.00 | 0.00 | 0.00 | 20 | 1021.3 |
| 20260905165044 | 23 | 199 | 1.6 | 11.3 | 0.00 | 0.00 | 0.00 | 21 | 1021.2 |
| 20260905164559 | 23 | 209 | 1.6 | 9.7 | 0.00 | 0.00 | 0.00 | 19 | 1021.2 |
| 20260905164045 | 22 | 0 | 1.6 | 9.7 | 0.00 | 0.00 | 0.00 | 18 | 1021.2 |
| 20260905163544 | 22 | 153 | 0.0 | 8.0 | 0.00 | 0.00 | 0.00 | 18 | 1021.3 |
| 20260905163057 | 22 | 150 | 1.6 | 8.0 | 0.00 | 0.00 | 0.00 | 17 | 1021.2 |
| 20260905162547 | 22 | 126 | 0.0 | 4.8 | 0.00 | 0.00 | 0.00 | 24 | 1021.2 |
| 20260905162044 | 21 | 124 | 0.0 | 6.4 | 0.00 | 0.00 | 0.00 | 20 | 1021.2 |
| 20260905161559 | 21 | 0 | 0.0 | 6.4 | 0.00 | 0.00 | 0.00 | 22 | 1021.2 |
| 20260905161045 | 21 | 73 | 0.0 | 4.8 | 0.00 | 0.00 | 0.00 | 23 | 1021.1 |
| 20260905160544 | 20 | 0 | 1.6 | 4.8 | 0.00 | 0.00 | 0.00 | 22 | 1021.1 |
| 20260905160101 | 19 | 55 | 1.6 | 6.4 | 0.00 | 0.00 | 0.00 | 25 | 1021.1 |
| 20260905155545 | 18 | 55 | 1.6 | 6.4 | 0.00 | 0.00 | 0.00 | 24 | 1021.1 |
| 20260905155046 | 18 | 57 | 1.6 | 6.4 | 0.00 | 0.00 | 0.00 | 26 | 1021.1 |
| 20260905154605 | 17 | 57 | 1.6 | 6.4 | 0.00 | 0.00 | 0.00 | 26 | 1021.0 |
| 20260905154042 | 17 | 49 | 1.6 | 4.8 | 0.00 | 0.00 | 0.00 | 27 | 1021.0 |
| 20260905153548 | 16 | 0 | 0.0 | 6.4 | 0.00 | 0.00 | 0.00 | 29 | 1020.8 |
| 20260905153103 | 16 | 53 | 0.0 | 6.4 | 0.00 | 0.00 | 0.00 | 30 | 1020.8 |
| 20260905152546 | 16 | 54 | 1.6 | 6.4 | 0.00 | 0.00 | 0.00 | 29 | 1020.8 |
| 20260905152046 | 16 | 44 | 1.6 | 4.8 | 0.00 | 0.00 | 0.00 | 30 | 1020.8 |
| 20260905151605 | 16 | 44 | 0.0 | 4.8 | 0.00 | 0.00 | 0.00 | 31 | 1020.7 |
| 20260905151045 | 16 | 44 | 1.6 | 4.8 | 0.00 | 0.00 | 0.00 | 31 | 1020.6 |
| 20260905150544 | 16 | 44 | 1.6 | 4.8 | 0.00 | 0.00 | 0.00 | 31 | 1020.6 |
| 20260905145547 | 16 | 0 | 0.0 | 4.8 | 0.00 | 0.00 | 0.00 | 31 | 1020.6 |
| 20260905145050 | 16 | 0 | 1.6 | 4.8 | 0.00 | 0.00 | 0.00 | 32 | 1020.5 |
| 20260905144559 | 16 | 0 | 0.0 | 4.8 | 0.00 | 0.00 | 0.00 | 31 | 1020.5 |
| 20260905144051 | 16 | 42 | 0.0 | 3.2 | 0.00 | 0.00 | 0.00 | 31 | 1020.5 |
| 20260905143547 | 16 | 0 | 0.0 | 3.2 | 0.00 | 0.00 | 0.00 | 30 | 1020.4 |
| 20260905143108 | 16 | 0 | 0.0 | 3.2 | 0.00 | 0.00 | 0.00 | 31 | 1020.3 |
| 20260905142545 | 16 | 45 | 0.0 | 4.8 | 0.00 | 0.00 | 0.00 | 29 | 1020.2 |
| 20260905142045 | 16 | 0 | 0.0 | 6.4 | 0.00 | 0.00 | 0.00 | 29 | 1020.2 |
| 20260905141559 | 16 | 45 | 0.0 | 6.4 | 0.00 | 0.00 | 0.00 | 28 | 1020.2 |
| 20260905141050 | 16 | 0 | 0.0 | 3.2 | 0.00 | 0.00 | 0.00 | 29 | 1020.1 |
| 20260905140548 | 16 | 0 | 0.0 | 3.2 | 0.00 | 0.00 | 0.00 | 29 | 1020.1 |
| 20260905135546 | 15 | 49 | 0.0 | 3.2 | 0.00 | 0.00 | 0.00 | 29 | 1019.9 |
| 20260905135049 | 16 | 0 | 0.0 | 4.8 | 0.00 | 0.00 | 0.00 | 29 | 1019.9 |
| 20260905134609 | 16 | 0 | 0.0 | 4.8 | 0.00 | 0.00 | 0.00 | 29 | 1019.8 |
| 20260905134050 | 16 | 0 | 0.0 | 4.8 | 0.00 | 0.00 | 0.00 | 28 | 1019.7 |
| 20260905133548 | 16 | 0 | 1.6 | 4.8 | 0.00 | 0.00 | 0.00 | 29 | 1019.7 |
| 20260905133057 | 16 | 0 | 0.0 | 4.8 | 0.00 | 0.00 | 0.00 | 29 | 1019.6 |
| 20260905132550 | 16 | 45 | 0.0 | 4.8 | 0.00 | 0.00 | 0.00 | 28 | 1019.6 |
| 20260905132046 | 16 | 0 | 0.0 | 4.8 | 0.00 | 0.00 | 0.00 | 29 | 1019.5 |
| 20260905131559 | 16 | 5 | 0.0 | 6.4 | 0.00 | 0.00 | 0.00 | 28 | 1019.5 |
| 20260905131044 | 16 | 309 | 0.0 | 6.4 | 0.00 | 0.00 | 0.00 | 28 | 1019.4 |
| 20260905130545 | 16 | 53 | 0.0 | 4.8 | 0.00 | 0.00 | 0.00 | 28 | 1019.3 |
| 20260905125619 | 16 | 327 | 1.6 | 8.0 | 0.00 | 0.00 | 0.00 | 27 | 1019.3 |
| 20260905125045 | 16 | 0 | 0.0 | 6.4 | 0.00 | 0.00 | 0.00 | 27 | 1019.3 |
| 20260905124605 | 16 | 52 | 0.0 | 6.4 | 0.00 | 0.00 | 0.00 | 28 | 1019.3 |
| 20260905124044 | 15 | 37 | 0.0 | 4.8 | 0.00 | 0.00 | 0.00 | 28 | 1019.4 |
| 20260905123548 | 15 | 62 | 0.0 | 4.8 | 0.00 | 0.00 | 0.00 | 27 | 1019.2 |
| 20260905123105 | 15 | 277 | 0.0 | 4.8 | 0.00 | 0.00 | 0.00 | 28 | 1019.3 |
| 20260905122547 | 16 | 0 | 0.0 | 3.2 | 0.00 | 0.00 | 0.00 | 28 | 1019.3 |
| 20260905122048 | 16 | 0 | 0.0 | 9.7 | 0.00 | 0.00 | 0.00 | 28 | 1019.2 |
| 20260905121557 | 16 | 50 | 0.0 | 9.7 | 0.00 | 0.00 | 0.00 | 27 | 1019.2 |
| 20260905121047 | 15 | 157 | 1.6 | 9.7 | 0.00 | 0.00 | 0.00 | 28 | 1019.3 |
| 20260905120544 | 15 | 0 | 1.6 | 6.4 | 0.00 | 0.00 | 0.00 | 27 | 1019.3 |
| 20260905120106 | 15 | 51 | 0.0 | 6.4 | 0.00 | 0.00 | 0.00 | 26 | 1019.1 |
| 20260905115550 | 15 | 0 | 0.0 | 6.4 | 0.00 | 0.00 | 0.00 | 27 | 1019.1 |
| 20260905115048 | 15 | 330 | 0.0 | 4.8 | 0.00 | 0.00 | 0.00 | 26 | 1019.2 |
| 20260905114601 | 15 | 0 | 0.0 | 4.8 | 0.00 | 0.00 | 0.00 | 26 | 1019.1 |
| 20260905114048 | 15 | 35 | 0.0 | 6.4 | 0.00 | 0.00 | 0.00 | 25 | 1019.1 |
| 20260905113548 | 15 | 0 | 0.0 | 6.4 | 0.00 | 0.00 | 0.00 | 25 | 1019.1 |
| 20260905113059 | 15 | 26 | 0.0 | 3.2 | 0.00 | 0.00 | 0.00 | 25 | 1019.2 |
| 20260905112544 | 15 | 338 | 0.0 | 3.2 | 0.00 | 0.00 | 0.00 | 25 | 1019.2 |
| 20260905112048 | 15 | 0 | 0.0 | 3.2 | 0.00 | 0.00 | 0.00 | 26 | 1019.2 |
| 20260905111646 | 15 | 348 | 0.0 | 3.2 | 0.00 | 0.00 | 0.00 | 26 | 1019.1 |
| 20260905111047 | 15 | 0 | 0.0 | 4.8 | 0.00 | 0.00 | 0.00 | 25 | 1019.2 |
| 20260905110548 | 15 | 0 | 0.0 | 4.8 | 0.00 | 0.00 | 0.00 | 27 | 1019.3 |
| 20260905110059 | 15 | 339 | 0.0 | 4.8 | 0.00 | 0.00 | 0.00 | 26 | 1019.4 |
| 20260905105548 | 15 | 0 | 0.0 | 3.2 | 0.00 | 0.00 | 0.00 | 27 | 1019.4 |
| 20260905105045 | 15 | 0 | 0.0 | 3.2 | 0.00 | 0.00 | 0.00 | 25 | 1019.4 |
| 20260905104559 | 15 | 44 | 0.0 | 6.4 | 0.00 | 0.00 | 0.00 | 25 | 1019.4 |
| 20260905104047 | 14 | 0 | 0.0 | 6.4 | 0.00 | 0.00 | 0.00 | 27 | 1019.4 |
| 20260905103549 | 14 | 44 | 0.0 | 4.8 | 0.00 | 0.00 | 0.00 | 25 | 1019.4 |
| 20260905103100 | 13 | 47 | 0.0 | 3.2 | 0.00 | 0.00 | 0.00 | 27 | 1019.3 |
| 20260905102548 | 13 | 329 | 0.0 | 4.8 | 0.00 | 0.00 | 0.00 | 29 | 1019.3 |
| 20260905102048 | 13 | 0 | 0.0 | 4.8 | 0.00 | 0.00 | 0.00 | 30 | 1019.4 |
| 20260905101556 | 13 | 34 | 0.0 | 4.8 | 0.00 | 0.00 | 0.00 | 32 | 1019.5 |
| 20260905101047 | 13 | 0 | 0.0 | 4.8 | 0.00 | 0.00 | 0.00 | 29 | 1019.4 |
| 20260905100549 | 13 | 0 | 0.0 | 3.2 | 0.00 | 0.00 | 0.00 | 33 | 1019.5 |
| 20260905100109 | 13 | 0 | 0.0 | 3.2 | 0.00 | 0.00 | 0.00 | 33 | 1019.6 |
| 20260905095544 | 13 | 0 | 0.0 | 1.6 | 0.00 | 0.00 | 0.00 | 34 | 1019.6 |
| 20260905095048 | 13 | 0 | 0.0 | 1.6 | 0.00 | 0.00 | 0.00 | 36 | 1019.7 |
| 20260905094559 | 12 | 0 | 0.0 | 1.6 | 0.00 | 0.00 | 0.00 | 35 | 1019.7 |
| 20260905094058 | 12 | 0 | 0.0 | 1.6 | 0.00 | 0.00 | 0.00 | 36 | 1019.7 |
| 20260905093549 | 12 | 0 | 0.0 | 1.6 | 0.00 | 0.00 | 0.00 | 36 | 1019.7 |
| 20260905093100 | 12 | 0 | 0.0 | 1.6 | 0.00 | 0.00 | 0.00 | 38 | 1019.7 |
| 20260905092546 | 12 | 0 | 0.0 | 1.6 | 0.00 | 0.00 | 0.00 | 39 | 1019.8 |
| 20260905092045 | 12 | 0 | 0.0 | 1.6 | 0.00 | 0.00 | 0.00 | 39 | 1019.8 |
| 20260905091610 | 12 | 0 | 0.0 | 1.6 | 0.00 | 0.00 | 0.00 | 40 | 1019.7 |
| 20260905091045 | 12 | 0 | 0.0 | 1.6 | 0.00 | 0.00 | 0.00 | 40 | 1019.7 |
| 20260905090544 | 12 | 0 | 0.0 | 0.0 | 0.00 | 0.00 | 0.00 | 42 | 1019.8 |
| 20260905090100 | 12 | 0 | 0.0 | 0.0 | 0.00 | 0.00 | 0.00 | 43 | 1019.8 |
| 20260905085546 | 12 | 0 | 0.0 | 0.0 | 0.00 | 0.00 | 0.00 | 44 | 1019.9 |
| 20260905085050 | 12 | 0 | 0.0 | 0.0 | 0.00 | 0.00 | 0.00 | 45 | 1020.0 |
| 20260905084558 | 12 | 0 | 0.0 | 0.0 | 0.00 | 0.00 | 0.00 | 45 | 1020.0 |
| 20260905084043 | 12 | 0 | 0.0 | 0.0 | 0.00 | 0.00 | 0.00 | 45 | 1020.1 |
| 20260905083544 | 12 | 0 | 0.0 | 0.0 | 0.00 | 0.00 | 0.00 | 46 | 1020.1 |
| 20260905083053 | 12 | 0 | 0.0 | 0.0 | 0.00 | 0.00 | 0.00 | 45 | 1020.1 |
| 20260905082544 | 12 | 0 | 0.0 | 0.0 | 0.00 | 0.00 | 0.00 | 46 | 1020.1 |
| 20260905082044 | 12 | 0 | 0.0 | 0.0 | 0.00 | 0.00 | 0.00 | 46 | 1020.1 |
| 20260905081606 | 12 | 0 | 0.0 | 0.0 | 0.00 | 0.00 | 0.00 | 45 | 1020.2 |
| 20260905081042 | 12 | 0 | 0.0 | 0.0 | 0.00 | 0.00 | 0.00 | 45 | 1020.2 |
| 20260905080543 | 13 | 0 | 0.0 | 0.0 | 0.00 | 0.00 | 0.00 | 45 | 1020.3 |
| 20260905075545 | 13 | 0 | 0.0 | 0.0 | 0.00 | 0.00 | 0.00 | 45 | 1020.4 |
| 20260905075044 | 13 | 0 | 0.0 | 0.0 | 0.00 | 0.00 | 0.00 | 44 | 1020.5 |
| 20260905074558 | 13 | 0 | 0.0 | 0.0 | 0.00 | 0.00 | 0.00 | 44 | 1020.5 |
| 20260905074046 | 13 | 0 | 0.0 | 0.0 | 0.00 | 0.00 | 0.00 | 44 | 1020.5 |
| 20260905073546 | 13 | 0 | 0.0 | 0.0 | 0.00 | 0.00 | 0.00 | 44 | 1020.5 |
| 20260905073059 | 13 | 0 | 0.0 | 0.0 | 0.00 | 0.00 | 0.00 | 44 | 1020.4 |
| 20260905072544 | 13 | 0 | 0.0 | 0.0 | 0.00 | 0.00 | 0.00 | 43 | 1020.4 |
| 20260905072043 | 13 | 0 | 0.0 | 0.0 | 0.00 | 0.00 | 0.00 | 44 | 1020.3 |
| 20260905071603 | 13 | 0 | 0.0 | 0.0 | 0.00 | 0.00 | 0.00 | 43 | 1020.3 |
| 20260905071044 | 13 | 0 | 0.0 | 0.0 | 0.00 | 0.00 | 0.00 | 44 | 1020.2 |
| 20260905070545 | 13 | 0 | 0.0 | 0.0 | 0.00 | 0.00 | 0.00 | 43 | 1020.2 |
| 20260905070100 | 13 | 0 | 0.0 | 0.0 | 0.00 | 0.00 | 0.00 | 44 | 1020.1 |
| 20260905065544 | 13 | 0 | 0.0 | 0.0 | 0.00 | 0.00 | 0.00 | 44 | 1020.1 |
| 20260905065045 | 13 | 0 | 0.0 | 0.0 | 0.00 | 0.00 | 0.00 | 44 | 1020.0 |
| 20260905064603 | 13 | 0 | 0.0 | 0.0 | 0.00 | 0.00 | 0.00 | 45 | 1020.0 |
| 20260905064046 | 13 | 0 | 0.0 | 0.0 | 0.00 | 0.00 | 0.00 | 46 | 1020.0 |
| 20260905063543 | 13 | 0 | 0.0 | 0.0 | 0.00 | 0.00 | 0.00 | 46 | 1020.0 |
| 20260905063104 | 13 | 0 | 0.0 | 0.0 | 0.00 | 0.00 | 0.00 | 47 | 1020.0 |
| 20260905062544 | 13 | 0 | 0.0 | 0.0 | 0.00 | 0.00 | 0.00 | 47 | 1020.1 |
| 20260905062046 | 13 | 0 | 0.0 | 0.0 | 0.00 | 0.00 | 0.00 | 47 | 1020.0 |
| 20260905061612 | 13 | 0 | 0.0 | 0.0 | 0.00 | 0.00 | 0.00 | 47 | 1020.0 |
| 20260905061046 | 13 | 0 | 0.0 | 0.0 | 0.00 | 0.00 | 0.00 | 48 | 1020.0 |
| 20260905060546 | 13 | 0 | 0.0 | 0.0 | 0.00 | 0.00 | 0.00 | 47 | 1020.0 |
| 20260905060100 | 13 | 0 | 0.0 | 0.0 | 0.00 | 0.00 | 0.00 | 47 | 1020.0 |
| 20260905055544 | 13 | 0 | 0.0 | 0.0 | 0.00 | 0.00 | 0.00 | 47 | 1020.0 |
| 20260905055044 | 13 | 0 | 0.0 | 0.0 | 0.00 | 0.00 | 0.00 | 47 | 1019.9 |
| 20260905054602 | 13 | 0 | 0.0 | 0.0 | 0.00 | 0.00 | 0.00 | 46 | 1019.9 |
| 20260905054047 | 13 | 0 | 0.0 | 0.0 | 0.00 | 0.00 | 0.00 | 46 | 1019.8 |
| 20260905053545 | 14 | 0 | 0.0 | 0.0 | 0.00 | 0.00 | 0.00 | 45 | 1019.9 |
| 20260905053103 | 14 | 0 | 0.0 | 0.0 | 0.00 | 0.00 | 0.00 | 45 | 1019.9 |
| 20260905052545 | 14 | 0 | 0.0 | 0.0 | 0.00 | 0.00 | 0.00 | 45 | 1020.0 |
| 20260905052043 | 14 | 0 | 0.0 | 0.0 | 0.00 | 0.00 | 0.00 | 45 | 1019.9 |
| 20260905051601 | 14 | 0 | 0.0 | 0.0 | 0.00 | 0.00 | 0.00 | 45 | 1019.9 |
| 20260905051043 | 14 | 0 | 0.0 | 0.0 | 0.00 | 0.00 | 0.00 | 44 | 1019.8 |
| 20260905050543 | 15 | 0 | 0.0 | 0.0 | 0.00 | 0.00 | 0.00 | 45 | 1019.7 |
| 20260905050106 | 15 | 0 | 0.0 | 1.6 | 0.00 | 0.00 | 0.00 | 45 | 1019.8 |
| 20260905045544 | 15 | 0 | 0.0 | 1.6 | 0.00 | 0.00 | 0.00 | 45 | 1019.7 |
| 20260905045044 | 15 | 0 | 0.0 | 1.6 | 0.00 | 0.00 | 0.00 | 46 | 1019.7 |
| 20260905044604 | 15 | 0 | 0.0 | 1.6 | 0.00 | 0.00 | 0.00 | 46 | 1019.7 |
| 20260905044144 | 15 | 0 | 0.0 | 1.6 | 0.00 | 0.00 | 0.00 | 47 | 1019.7 |
| 20260905043544 | 15 | 0 | 0.0 | 1.6 | 0.00 | 0.00 | 0.00 | 48 | 1019.6 |
| 20260905043104 | 14 | 0 | 0.0 | 1.6 | 0.00 | 0.00 | 0.00 | 49 | 1019.6 |
| 20260905042543 | 14 | 0 | 0.0 | 1.6 | 0.00 | 0.00 | 0.00 | 51 | 1019.6 |
| 20260905042043 | 14 | 0 | 0.0 | 1.6 | 0.00 | 0.00 | 0.00 | 52 | 1019.6 |
| 20260905041556 | 13 | 0 | 0.0 | 3.2 | 0.00 | 0.00 | 0.00 | 54 | 1019.6 |
| 20260905041044 | 13 | 0 | 0.0 | 3.2 | 0.00 | 0.00 | 0.00 | 54 | 1019.6 |
| 20260905040546 | 13 | 0 | 0.0 | 0.0 | 0.00 | 0.00 | 0.00 | 54 | 1019.5 |
| 20260905035547 | 14 | 0 | 0.0 | 0.0 | 0.00 | 0.00 | 0.00 | 54 | 1019.4 |
| 20260905035044 | 14 | 0 | 0.0 | 0.0 | 0.00 | 0.00 | 0.00 | 55 | 1019.6 |
| 20260905034607 | 14 | 0 | 0.0 | 1.6 | 0.00 | 0.00 | 0.00 | 56 | 1019.5 |
| 20260905034044 | 14 | 0 | 0.0 | 1.6 | 0.00 | 0.00 | 0.00 | 55 | 1019.4 |
| 20260905033543 | 14 | 0 | 0.0 | 0.0 | 0.00 | 0.00 | 0.00 | 56 | 1019.3 |
| 20260905033104 | 14 | 0 | 0.0 | 0.0 | 0.00 | 0.00 | 0.00 | 57 | 1019.2 |
| 20260905032544 | 15 | 0 | 0.0 | 0.0 | 0.00 | 0.00 | 0.00 | 57 | 1019.1 |
| 20260905032042 | 15 | 0 | 0.0 | 0.0 | 0.00 | 0.00 | 0.00 | 57 | 1019.1 |
| 20260905031559 | 15 | 0 | 0.0 | 0.0 | 0.00 | 0.00 | 0.00 | 58 | 1019.1 |
| 20260905031044 | 15 | 0 | 0.0 | 0.0 | 0.00 | 0.00 | 0.00 | 57 | 1019.1 |
| 20260905030623 | 15 | 0 | 0.0 | 0.0 | 0.00 | 0.00 | 0.00 | 57 | 1019.1 |
| 20260905030547 | 15 | 0 | 0.0 | 0.0 | 0.00 | 0.00 | 0.00 | 57 | 1019.1 |
| 20260905030123 | 15 | 0 | 0.0 | 0.0 | 0.00 | 0.00 | 0.00 | 57 | 1019.1 |
| 20260905025547 | 16 | 0 | 0.0 | 0.0 | 0.00 | 0.00 | 0.00 | 57 | 1019.0 |
| 20260905025048 | 16 | 0 | 0.0 | 0.0 | 0.00 | 0.00 | 0.00 | 58 | 1018.9 |
| 20260905024602 | 16 | 0 | 0.0 | 0.0 | 0.00 | 0.00 | 0.00 | 58 | 1018.9 |
| 20260905024048 | 16 | 0 | 0.0 | 0.0 | 0.00 | 0.00 | 0.00 | 58 | 1019.0 |
| 20260905023550 | 16 | 0 | 0.0 | 0.0 | 0.00 | 0.00 | 0.00 | 58 | 1018.8 |
| 20260905023100 | 17 | 0 | 0.0 | 0.0 | 0.00 | 0.00 | 0.00 | 58 | 1018.9 |
| 20260905022547 | 17 | 0 | 0.0 | 0.0 | 0.00 | 0.00 | 0.00 | 58 | 1019.0 |
| 20260905022047 | 17 | 0 | 0.0 | 0.0 | 0.00 | 0.00 | 0.00 | 57 | 1019.1 |
| 20260905021606 | 17 | 0 | 0.0 | 1.6 | 0.00 | 0.00 | 0.00 | 56 | 1018.9 |
| 20260905021047 | 17 | 0 | 0.0 | 1.6 | 0.00 | 0.00 | 0.00 | 57 | 1018.9 |
| 20260905020545 | 18 | 0 | 0.0 | 1.6 | 0.00 | 0.00 | 0.00 | 57 | 1018.9 |
| 20260905020108 | 18 | 0 | 0.0 | 3.2 | 0.00 | 0.00 | 0.00 | 56 | 1018.9 |
| 20260905015548 | 18 | 0 | 0.0 | 3.2 | 0.00 | 0.00 | 0.00 | 56 | 1018.9 |
| 20260905015050 | 18 | 0 | 0.0 | 3.2 | 0.00 | 0.00 | 0.00 | 56 | 1018.9 |
| 20260905014558 | 18 | 0 | 0.0 | 4.8 | 0.00 | 0.00 | 0.00 | 55 | 1019.0 |
| 20260905014051 | 18 | 313 | 1.6 | 4.8 | 0.00 | 0.00 | 0.00 | 55 | 1019.0 |
| 20260905013547 | 19 | 0 | 0.0 | 1.6 | 0.00 | 0.00 | 0.00 | 54 | 1019.0 |
| 20260905013100 | 19 | 107 | 0.0 | 6.4 | 0.00 | 0.00 | 0.00 | 54 | 1018.8 |
| 20260905012545 | 19 | 0 | 0.0 | 6.4 | 0.00 | 0.00 | 0.00 | 54 | 1018.9 |
| 20260905012046 | 19 | 0 | 0.0 | 3.2 | 0.00 | 0.00 | 0.00 | 55 | 1019.0 |
| 20260905011559 | 20 | 0 | 0.0 | 6.4 | 0.00 | 0.00 | 0.00 | 54 | 1018.9 |
| 20260905011042 | 20 | 0 | 0.0 | 6.4 | 0.00 | 0.00 | 0.00 | 54 | 1019.1 |
| 20260905010543 | 20 | 0 | 0.0 | 14.5 | 0.00 | 0.00 | 0.00 | 53 | 1019.0 |
| 20260905005544 | 20 | 192 | 3.2 | 16.1 | 0.00 | 0.00 | 0.00 | 51 | 1019.0 |